Location: Bodest
(46.3000°N, 22.5667°E)
Time: 20:47:04
(UTC+00:00)

Cosmos 1626 Rocket - Pass Details

Date: 30 May 2022
Orbit: 602 x 631 km, 82.5° (Epoch: 24 June)

Event Time Altitude Azimuth Distance (km) Brightness Sun altitude
Exits shadow 01:40:20 - 176° (S) 2,812 6.5 -9.2°
Reaches altitude 10° 01:42:24 10° 173° (S) 1,979 5.8 -8.9°
Maximum altitude 01:46:41 57° 95° (E) 728 4.2 -8.4°
Drops below altitude 10° 01:50:59 10° 17° (NNE) 1,977 7.2 -7.8°
Sets 01:53:13 0° 13° (NNE) 2,882 8.0 -7.6°
